ANZ698 NZNV-NZAA

Flight info

Callsign ANZ698
Flight time N/A
Altitude 37000
Route ANOPA Q787 QN Y569 SAVLA/N0454F390 Y569 PEDPO Q335 DAPNO Y883 LEBOX Y655 POKOM Q277 DAVEE
Aircraft A20N/M-SDE2E3FGHIRWXY/LB1

Departure

Time 2026-05-08 04:13
Airport Invercargill Airport (NZNV)

Arrival

Time N/A
Airport Auckland International Airport (NZAA)
Time Latitude Longitude Altitude Speed Heading
2026-05-08 03:57 -46.41502 168.32146 12 ft 0 kts 30°
2026-05-08 04:06 -46.41514 168.32136 15 ft 2 kts 31°
2026-05-08 04:07 -46.41529 168.32129 12 ft 1 kts 333°
2026-05-08 04:07 -46.41530 168.32130 12 ft 0 kts 332°
2026-05-08 04:08 -46.41529 168.32130 11 ft 1 kts 332°
2026-05-08 04:08 -46.41514 168.32118 12 ft 5 kts 332°
2026-05-08 04:09 -46.41459 168.32090 12 ft 11 kts 342°
2026-05-08 04:09 -46.41379 168.32044 14 ft 14 kts 334°
2026-05-08 04:09 -46.41292 168.31963 13 ft 15 kts 292°
2026-05-08 04:09 -46.41326 168.31814 13 ft 17 kts 245°
2026-05-08 04:10 -46.41378 168.31652 13 ft 18 kts 244°
2026-05-08 04:10 -46.41433 168.31483 12 ft 20 kts 245°
2026-05-08 04:10 -46.41494 168.31291 12 ft 21 kts 245°
2026-05-08 04:10 -46.41560 168.31088 11 ft 23 kts 244°
2026-05-08 04:11 -46.41632 168.30871 11 ft 24 kts 244°
2026-05-08 04:11 -46.41693 168.30684 10 ft 20 kts 244°
2026-05-08 04:11 -46.41753 168.30497 12 ft 21 kts 245°
2026-05-08 04:11 -46.41812 168.30316 13 ft 16 kts 244°
2026-05-08 04:12 -46.41830 168.30217 15 ft 16 kts 263°
2026-05-08 04:12 -46.41854 168.30180 14 ft 4 kts 121°
2026-05-08 04:12 -46.41841 168.30230 18 ft 7 kts 62°
2026-05-08 04:12 -46.41834 168.30250 15 ft 0 kts 63°
2026-05-08 04:13 -46.41723 168.30591 11 ft 76 kts 65°
2026-05-08 04:13 -46.41525 168.31195 13 ft 119 kts 65°
2026-05-08 04:13 -46.41092 168.32481 92 ft 160 kts 64°
2026-05-08 04:13 -46.40615 168.33916 675 ft 159 kts 67°
2026-05-08 04:14 -46.40157 168.35368 1360 ft 158 kts 66°
2026-05-08 04:14 -46.39691 168.36831 1938 ft 166 kts 65°
2026-05-08 04:14 -46.39170 168.38436 2343 ft 184 kts 64°
2026-05-08 04:14 -46.38565 168.40170 2752 ft 202 kts 54°
2026-05-08 04:15 -46.37430 168.41460 3167 ft 218 kts 19°
2026-05-08 04:15 -46.35873 168.41689 3613 ft 237 kts 354°
2026-05-08 04:15 -46.34162 168.41437 4114 ft 258 kts 355°
2026-05-08 04:15 -46.32363 168.41368 4898 ft 264 kts
2026-05-08 04:16 -46.30491 168.41574 5886 ft 267 kts
2026-05-08 04:16 -46.28654 168.41954 6771 ft 270 kts
2026-05-08 04:16 -46.26816 168.42424 7671 ft 273 kts
2026-05-08 04:16 -46.24944 168.42937 8581 ft 275 kts
2026-05-08 04:17 -46.23052 168.43462 9481 ft 278 kts
2026-05-08 04:17 -46.21109 168.43995 10009 ft 294 kts
2026-05-08 04:17 -46.19013 168.44500 10298 ft 315 kts
2026-05-08 04:17 -46.16786 168.44587 10835 ft 323 kts 355°
2026-05-08 04:18 -46.14568 168.44186 11713 ft 322 kts 347°
2026-05-08 04:18 -46.12365 168.43559 12562 ft 324 kts 347°
2026-05-08 04:18 -46.10126 168.43058 13341 ft 328 kts 353°
2026-05-08 04:18 -46.07831 168.43063 14032 ft 333 kts
2026-05-08 04:19 -46.05523 168.43618 14710 ft 339 kts 10°
2026-05-08 04:19 -46.03221 168.44437 15405 ft 342 kts 10°
2026-05-08 04:19 -46.00901 168.45245 16096 ft 344 kts 10°
2026-05-08 04:19 -45.98570 168.46045 16761 ft 347 kts
2026-05-08 04:20 -45.96208 168.46851 17399 ft 349 kts
2026-05-08 04:20 -45.93867 168.47649 18041 ft 351 kts
2026-05-08 04:20 -45.91487 168.48460 18657 ft 352 kts
2026-05-08 04:20 -45.89094 168.49275 19240 ft 354 kts
2026-05-08 04:21 -45.86689 168.50093 19821 ft 356 kts
2026-05-08 04:21 -45.84270 168.50914 20379 ft 358 kts
2026-05-08 04:21 -45.81836 168.51740 20942 ft 361 kts
2026-05-08 04:21 -45.79384 168.52571 21490 ft 363 kts
2026-05-08 04:22 -45.76915 168.53408 22013 ft 366 kts
2026-05-08 04:22 -45.74420 168.54251 22539 ft 368 kts
2026-05-08 04:22 -45.71916 168.55096 23057 ft 370 kts
2026-05-08 04:22 -45.69408 168.55943 23497 ft 372 kts
2026-05-08 04:23 -45.66878 168.56797 23929 ft 374 kts
2026-05-08 04:23 -45.64336 168.57652 24371 ft 376 kts
2026-05-08 04:23 -45.61815 168.58501 24823 ft 378 kts
2026-05-08 04:23 -45.59254 168.59362 25249 ft 380 kts
2026-05-08 04:24 -45.56662 168.60232 25608 ft 384 kts
2026-05-08 04:24 -45.54057 168.61105 26059 ft 385 kts
2026-05-08 04:24 -45.51444 168.61980 26429 ft 387 kts
2026-05-08 04:24 -45.48811 168.62861 26789 ft 390 kts
2026-05-08 04:25 -45.46160 168.63747 27152 ft 392 kts
2026-05-08 04:25 -45.43494 168.64615 27521 ft 393 kts
2026-05-08 04:25 -45.40811 168.65434 27857 ft 395 kts
2026-05-08 04:25 -45.38110 168.66244 28192 ft 397 kts
2026-05-08 04:26 -45.35453 168.67043 28484 ft 400 kts
2026-05-08 04:26 -45.32662 168.67886 28746 ft 402 kts
2026-05-08 04:26 -45.29952 168.68709 29069 ft 404 kts
2026-05-08 04:26 -45.27202 168.69547 29412 ft 405 kts
2026-05-08 04:27 -45.24433 168.70388 29671 ft 408 kts
2026-05-08 04:27 -45.21653 168.71233 30005 ft 408 kts
2026-05-08 04:27 -45.18877 168.72076 30311 ft 409 kts
2026-05-08 04:27 -45.16089 168.72922 30634 ft 409 kts
2026-05-08 04:28 -45.13304 168.73767 30995 ft 409 kts
2026-05-08 04:28 -45.10537 168.74606 31405 ft 407 kts
2026-05-08 04:28 -45.07770 168.75444 31811 ft 404 kts
2026-05-08 04:28 -45.05029 168.76272 32204 ft 403 kts
2026-05-08 04:29 -45.02289 168.77100 32549 ft 402 kts
2026-05-08 04:29 -44.99586 168.78132 32931 ft 403 kts 13°
2026-05-08 04:29 -44.96950 168.79540 33288 ft 405 kts 18°
2026-05-08 04:29 -44.94411 168.81310 33579 ft 408 kts 23°